Location: Capannuccia
(43.7000°N, 11.3000°E)
Time: 02:16:44
(UTC+00:00)

STARLINK-1310 - Pass Details

Date: 07 June 2020
Orbit: 548 x 551 km, 53.0° (Epoch: 05 July)

Event Time Altitude Azimuth Distance (km) Brightness Sun altitude
Exits shadow 00:39:55 45° 140° (SE) 749 4.0 -20.6°
Maximum altitude 00:39:58 45° 138° (SE) 749 4.0 -20.6°
Drops below altitude 10° 00:43:56 10° 65° (ENE) 1,823 6.9 -20.4°
Sets 00:46:14 0° 59° (ENE) 2,720 8.0 -20.2°
